Home   Weather   Winchester   Past weeks

Flag for United Kingdom Past Weather in Winchester, England, United Kingdom — Yesterday and Last 2 Weeks

Now
50 °F

Clear.


Feels Like: 48 °F
Forecast: 50 / 62 °F
Wind: 5 mph from South

Location: Middle Wallop

Current Time: Sep 25, 2016 at 11:32:14 PM

Latest Report: Sep 25, 2016 at 10:50 PM


Visibility: N/A

Pressure: 30.15 "Hg

Humidity: 88%

Dew Point: 46 °F

Location of WinchesterLocation

Past Weather in Winchester — Graph

°F

Winchester Temperature Yesterday

Maximum temperature yesterday: 70 °F (at 12:50 PM)
Minimum temperature yesterday: 52 °F (at 12:50 AM)
Average temperature yesterday: 63 °F

High & Low Weather Summary for the Past Weeks

 TemperatureHumidityPressure
High77 °F (Sep 13, 3:50 PM)100% (Sep 11, 3:50 AM)30.27 "Hg (Sep 11, 3:50 AM)
Low43 °F (Sep 11, 6:50 AM)46% (Sep 16, 1:50 PM)29.74 "Hg (Sep 13, 6:50 PM)
Average61 °F79%30.01 "Hg
* Reported Sep 10 9:50 PM — Sep 25 9:50 PM, Winchester, Weather by CustomWeather, © 2016

Note: Actual official high and low records may vary slightly from our data, if they occured in-between our weather recording intervals... More about our weather records

Advertising

Winchester Weather History for the Previous 24 Hours

Scroll right to see more
 ConditionsComfort  
Time TempWeatherWind HumidityBarometerVisibility
9:50 PM
Sun, Sep 25
52 °FClear.5 mph88%30.12 "HgN/A
8:50 PM52 °FClear.5 mph82%30.12 "HgN/A
7:50 PM54 °FClear.6 mph77%30.12 "HgN/A
6:50 PM57 °FPassing clouds.6 mph72%30.09 "HgN/A
5:50 PM61 °FPassing clouds.10 mph59%30.07 "HgN/A
4:50 PM61 °FPassing clouds.13 mph55%30.07 "HgN/A
3:50 PM63 °FPassing clouds.13 mph52%30.04 "HgN/A
2:50 PM63 °FPassing clouds.16 mph52%30.04 "HgN/A
1:50 PM64 °FScattered clouds.13 mph56%30.01 "HgN/A
12:50 PM63 °FPassing clouds.12 mph56%29.98 "HgN/A
11:50 AM63 °FBroken clouds.16 mph59%29.98 "HgN/A
10:50 AM61 °FPartly sunny.14 mph68%29.95 "HgN/A
9:50 AM59 °FPassing clouds.10 mph77%29.92 "HgN/A
8:50 AM57 °FOvercast.6 mph82%29.89 "HgN/A
7:50 AM55 °FPartly sunny.7 mph94%29.89 "HgN/A
6:50 AM57 °FPassing clouds.7 mph88%29.86 "HgN/A
5:50 AM57 °FPartly cloudy.7 mph88%29.83 "HgN/A
4:50 AM59 °FPassing clouds.5 mph88%29.77 "HgN/A
3:50 AM61 °FPartly cloudy.14 mph94%29.77 "HgN/A
2:50 AM64 °FPartly cloudy.16 mph83%29.77 "HgN/A
1:50 AM64 °FPassing clouds.17 mph88%29.80 "HgN/A
12:50 AM64 °FPassing clouds.14 mph83%29.80 "HgN/A
11:50 PM
Sat, Sep 24
63 °FPassing clouds.9 mph77%29.80 "HgN/A
Weather by CustomWeather, © 2016

See weather overviewHow to use our weather pages